Location: TAAA CAC
(31.8680°N, 109.5150°W)
Time: 23:39:34
(UTC-07:00)

Hubble Space Telescope - Pass Details

Date: 01 March 2024
Orbit: 513 x 517 km, 28.5° (Epoch: 21 April)

Event Time Altitude Azimuth Distance (km) Brightness Sun altitude
Rises 20:47:20 0° 267° (W) 2,629 5.3 -32.7°
Reaches altitude 10° 20:49:51 10° 254° (WSW) 1,741 4.0 -33.2°
Enters shadow 20:50:21 13° 249° (WSW) 1,587 3.7 -33.3°
